Tracking 19170 objects as of 23-May-2018
HD Live streaming from Space Station
objects crossing your sky now

PICOSAT 5

Track PICOSAT 5 now!
10-day predictions
PICOSAT 5 is classified as:


NORAD ID: 26093
Int'l Code: 2000-004L
Perigee: 706.1 km
Apogee: 750.3 km
Inclination: 100.2 °
Period: 99.2 minutes
Semi major axis: 7099 km
RCS: 0.0365 m2 (small)
Launch date: January 27, 2000
Source: United States (US)
Launch site: AIR FORCE WESTERN TEST RANGE (AFWTR)
aabbcc
Your satellite tracking list
Your tracking list is empty




NASA's NSSDC Master Catalog

Two Line Element Set (TLE):
1 26093U 00004L   18142.47356726 +.00000284 +00000-0 +86818-4 0  9999
2 26093 100.2147 325.6325 0031124 144.9233 215.4013 14.51394315964045
Source of the keplerian elements: AFSPC